User: anonymous   Login
Location: Meinert
(37.9441°N, 122.0275°W)
Time: 19:12:23
(UTC+00:00)
Language:

CZ-3 Stage 3 - Orbit

View from above orbital plane
View from above orbital plane
View from above satellite
View from above satellite

Ground track
Ground track

The orbit data is extracted from the following two-line orbital elements,

1 16528U 86010B   24176.97177125 -.00000050  00000-0 -37132-4 0  9993
2 16528  30.6144 136.2240 7150680 172.6938 210.5113  2.32127751272535
Epoch (UTC): 24 June 2024 23:19:21
Eccentricity: 0.7150680
inclination: 30.6144°
perigee height: 487 km
apogee height: 34945 km
right ascension of ascending node: 136.2240°
argument of perigee: 172.6938°
revolutions per day: 2.32127751
mean anomaly at epoch: 210.5113°
orbit number at epoch: 27253

The dashed part of the orbit path shows where the satellite is in the earth's shadow,  

DLR